Regional Weather Roundup
Issued by NWS

Home | Current Version | Previous Version | Graphics & Text | Print | Product List | Glossary Off
Versions: 1 2 3 4 5 6 7 8 9 10 11 12 13 14 15 16 17 18 19 20 21 22 23 24 25 26 27 28 29 30 31 32 33 34 35 36 37 38 39 40 41 42 43 44 45 46 47 48 49 50

000
ASUS45 KPSR 010310
RWRAZ

ARIZONA HOURLY REGIONAL WEATHER ROUNDUP
NATIONAL WEATHER SERVICE PHOENIX AZ
800 PM MST FRI SEP 30 2016

NOTE: FAIR INDICATES FEW OR NO CLOUDS BELOW 12,000 FEET WITH NO
SIGNIFICANT WEATHER AND/OR OBSTRUCTIONS TO VISIBILITY.

AZZ001>003-036-010400-
NORTHWEST ARIZONA

CITY           SKY/WX    TMP DP  RH WIND       PRES   REMARKS
BULLHEAD CITY  CLEAR     91  46  21 CALM      29.85S
KINGMAN        CLEAR     69  32  25 SE13      30.06S
$$

AZZ004>008-015-016-018-010400-
NORTH CENTRAL ARIZONA

CITY           SKY/WX    TMP DP  RH WIND       PRES   REMARKS
GRAND CANYON   PTCLDY    53  48  83 CALM      30.29S
PRESCOTT       PTCLDY    58  55  90 CALM      30.20R
FLAGSTAFF      PTCLDY    51  49  92 CALM      30.30F
PAYSON         CLEAR     63  45  51 CALM      30.23R
PAGE           CLEAR     69  53  56 SE5       30.13S
$$

AZZ009>014-017-010400-
NORTHEAST ARIZONA

CITY           SKY/WX    TMP DP  RH WIND       PRES   REMARKS
WINSLOW        PTCLDY    59  55  87 W7        30.21R
SAINT JOHNS    PTCLDY    57  51  80 SW5       30.25R
WINDOW ROCK    CLEAR     57  45  64 CALM      30.29R
SHOW LOW       PTCLDY    54  46  76 SE5       30.30R
$$

AZZ023-010400-
GREATER PHOENIX AREA

CITY           SKY/WX    TMP DP  RH WIND       PRES   REMARKS
PHOENIX        PTCLDY    89  49  25 SE3       29.91R
BUCKEYE        PTCLDY    84  50  30 N6        29.92S
GLENDALE       PTCLDY    86  54  32 CALM      29.93R
LUKE AFB       PTCLDY    84  53  34 NE6       29.91R
DEER VALLEY    PTCLDY    86  46  24 NW3       29.93R
SCOTTSDALE     PTCLDY    87  48  25 NW3       29.95R
MESA-FALCON    PTCLDY   N/A N/A N/A NW7       29.91R
CHANDLER       PTCLDY    84  55  37 E8        29.93
$$

AZZ027-028-010400-
SOUTHWEST MARICOPA COUNTY AND PINAL COUNTY

CITY           SKY/WX    TMP DP  RH WIND       PRES   REMARKS
CASA GRANDE    PTCLDY    84  55  37 SE7       29.97S
GILA BEND      PTCLDY    88  54  30 SE12      29.90R
$$

AZZ503-504-507>509-010400-
SOUTHEAST ARIZONA

CITY           SKY/WX    TMP DP  RH WIND       PRES   REMARKS
TUCSON         MOCLDY    76  60  57 SE3       30.05S
DAVIS-MONTHAN  CLOUDY    74  62  65 E7        30.05R
RYAN FIELD     PTCLDY    73  63  68 SE5       30.04R
NOGALES        CLEAR     68  56  65 NE7       30.12R
SIERRA VISTA   CLEAR     64  55  73 S8        30.19S
DOUGLAS        CLEAR     61  57  87 S6        30.16R
SAFFORD        MOCLDY    71  56  58 W7        30.07R
$$

AZZ020-021-025-026-031-010400-
SOUTHWEST ARIZONA

CITY           SKY/WX    TMP DP  RH WIND       PRES   REMARKS
YUMA           PTCLDY    91  54  28 CALM      29.84R
$$

CAZ031-033-041-043-047-048-061-010400-
SOUTHERN CALIFORNIA

CITY           SKY/WX    TMP DP  RH WIND       PRES   REMARKS
DOWNTOWN L.A.  CLEAR     73  55  53 VRB3      29.92S
L.A. AIRPORT   CLEAR     70  57  63 SW9       29.93S
SAN DIEGO      PTCLDY    74  66  76 NW3       29.96S
BURBANK        CLEAR     82  45  27 CALM      29.94R
ONTARIO        CLEAR     80  47  31 SW9       29.95R
RIVERSIDE      CLEAR     80  51  36 W9        29.95R
PALM SPRINGS   CLEAR     92  51  24 NW14      29.86R
EL CENTRO NAS  PTCLDY    91  52  26 SW15      29.84R
IMPERIAL       CLEAR     92  56  29 SW12      29.82R
BLYTHE         PTCLDY    91  53  27 SE7       29.84R
NEEDLES          N/A    N/A N/A N/A MISG      29.86S
$$

NVZ020-UTZ003-010400-
SOUTHERN NEVADA-UTAH

CITY           SKY/WX    TMP DP  RH WIND       PRES   REMARKS
LAS VEGAS      PTCLDY    87  43  21 S5        29.93S
SALT LAKE CITY MOCLDY    69  48  47 SE7       30.06S
$$

NMZ009-TXZ055-010400-
NEW MEXICO-WEST TEXAS

CITY           SKY/WX    TMP DP  RH WIND       PRES   REMARKS
ALBUQUERQUE    PTCLDY    72  43  35 NW6       30.19R
EL PASO        PTCLDY    70  60  70 S7        30.14R
$$


........................KEY........................
SKY/WX - SKY CONDITION/WEATHER
TMP    - TEMPERATURE IN FAHRENHEIT
DP     - DEW POINT IN FAHRENHEIT
RH     - RELATIVE HUMIDITY IN PERCENT
WIND   - DIRECTION AND SPEED IN MILES PER HOUR (MPH)
VRB    - VARIABLE WIND DIRECTION
PRES   - MEAN SEA LEVEL PRESSURE IN INCHES OF MERCURY
         F - FALLING PRESSURE   R - RISING PRESSURE
         S - STEADY PRESSURE
VSB    - VISIBILITY IN MILES
HX     - HEAT INDEX IN FAHRENHEIT
WCI    - WIND CHILL INDEX IN FAHRENHEIT
TC     - TEMPERATURE IN CELSIUS WHICH IS ALSO KNOWN AS
         TEMPERATURE IN CENTIGRADE
AFB    - AIR FORCE BASE
         LUKE AFB IS LUKE AIR FORCE BASE
         DAVIS-MONTHAN IS DAVIS-MONTHAN AIR FORCE BASE
NAS    - NAVAL AIR STATION
         EL CENTRO NAS IS EL CENTRO NAVAL AIR STATION
N/A    - NOT AVAILABLE




USA.gov is the U.S. government's official web portal to all federal, state and local government web resources and services.